Regional Weather Roundup
Issued by NWS Charleston, SC

Current Version | Previous Version | Text Only | Print | Product List | Glossary Off
Versions: 1 2 3 4 5 6 7 8 9 10 11 12 13 14 15 16 17 18 19 20 21 22 23 24 25 26 27 28 29 30 31 32 33 34 35 36 37 38 39 40 41 42 43 44 45 46 47 48 49 50

000
ASUS42 KCHS 301511
RWRCHS

REGIONAL WEATHER ROUNDUP
NATIONAL WEATHER SERVICE CHARLESTON SC
1000 AM EST FRI JAN 30 2015

NOTE: "FAIR" INDICATES FEW OR NO CLOUDS BELOW 12,000 FEET WITH NO
SIGNIFICANT WEATHER AND/OR OBSTRUCTIONS TO VISIBILITY.

NOT ALL STATIONS ARE QUALITY CONTROLLED BY THE NATIONAL
WEATHER SERVICE. USE DATA WITH CAUTION...ESPECIALLY
DEWPOINT OBSERVATIONS.

SCZ027-030-031-034>040-042>050-301600-
...SOUTHEAST SOUTH CAROLINA...

CITY           SKY/WX    TMP DP  RH WIND       PRES   REMARKS
N CHARLESTON   MOSUNNY   55  35  47 N21G28    30.12R
WATERFRONT PRK NOT AVBL
MOUNT PLEASANT FAIR      55  37  50 NW16G24   30.10R
PINOPOLIS        N/A     52  37  58 NW18      30.01S
MONCKS CORNER  FAIR      54  36  50 N14G22    30.12R
SUMMERVILLE    NOT AVBL
BEAUFORT MCAS  MOSUNNY   54  38  54 NW17G25   30.15R
BEAUFORT ARPT  FAIR      54  41  62 NW17G24   30.14R
HILTON HEAD IS MOSUNNY   54  41  62 NW12G25   30.15R
WALTERBORO     NOT AVBL
ALLENDALE      FAIR      52  36  54 NW8G15    30.16S

...SOUTHERN MIDLANDS AND PEE DEE...

CITY           SKY/WX    TMP DP  RH WIND       PRES   REMARKS
GEORGETOWN     NOT AVBL
KINGSTREE      NOT AVBL
ORANGEBURG     SUNNY     50  29  44 N13G22    30.16R
BARNWELL       FAIR      50  36  57 NW8G16    30.18R
AIKEN          FAIR      46  34  61 NW10G16   30.20R
MANNING        FAIR      52  32  46 N10G24    30.13R
COLUMBIA       MOSUNNY   49  27  42 N12G24    30.17R
SUMTER         SUNNY     49  29  46 N16G26    30.13R
FLORENCE       MOSUNNY   50  31  48 N17G25    30.12R
MYRTLE BEACH   SUNNY     52  32  46 NW17G25   30.09R
N MYRTLE BEACH MOSUNNY   51  32  48 N13G23    30.07R

$$

GAZ063-065-086>088-099>101-113>116-118-119-134>141-150-301600-
...SOUTHEAST GEORGIA...

CITY           SKY/WX    TMP DP  RH WIND       PRES   REMARKS
SAVANNAH ARPT  MOSUNNY   53  38  56 NW17G26   30.16R
HUNTER AAF     MOSUNNY   55  40  57 NW17G30   30.14R
FORT STEWART   MOSUNNY   53  38  56 NW16      30.16R
STATESBORO     SUNNY     50  37  59 N12G21    30.19R
SYLVANIA       SUNNY     51  39  64 N13G20    30.19R
CLAXTON        FAIR      50  37  62 NW8G21    30.20R

...CSRA...CENTRAL AND FAR SOUTHEAST GEORGIA...

CITY           SKY/WX    TMP DP  RH WIND       PRES   REMARKS
THOMSON        SUNNY     47  33  56 W16       30.27R
AUGUSTA-BUSH   SUNNY     49  30  48 NW13G20   30.21R
AUGUSTA-DANIEL SUNNY     48  30  49 NW15G22   30.21R
SWAINSBORO     FAIR      50  25  37 NW14G22   30.22R
VIDALIA        SUNNY     48  34  57 N17G23    30.22R
EASTMAN        FAIR      47  32  56 N10G18    30.28R
HAZLEHURST     FAIR      50  36  57 NW9G21    30.22R
ALMA           MOSUNNY   53  38  56 NW15G23   30.19S
WAYCROSS       PTSUNNY   59  49  69 NW14G20   30.19R
JESUP          FAIR      55  43  62 N10G24    30.19R
BAXLEY         FAIR      52  37  58 NW15      30.19S
BRUNSWICK      MOSUNNY   59  46  63 NW13G23   30.17R
SAINT SIMONS   MOSUNNY   57  49  74 NW10G17   30.16R

$$

SCZ027-028-034-036>038-045-046-048>050-GAZ119-141-301600-
...LAKE AND SUPPLEMENTAL COASTAL OBSERVATIONS...

STATION/POSITION TIME  TEMP    WIND        PRES    WAVE   SWELL
                       AIR SEA DIR/SP/G            HT/PER HT/PER/DIR
                 (UTC) (F)     (DEG/KT/KT) (MB)    (FT/S) (FT/S/D)
UPR LAKE MARION  NOT AVBL
WINYAH BAY       NOT AVBL
LAKE MURRAY      1400   45     320/  4/ 17 1020.7R
ACE BASIN NERRS  NOT AVBL
FORT PULASKI     1400   54 52  300/ 17/ 20 1020.5R
SAPELO ISLAND    NOT AVBL

$$

ANZ835-935-AMZ111-154-330-350-352-354-370-450-454-472-301600-
...C-MAN AND BUOY OBSERVATIONS...

STATION/POSITION TIME  TEMP    WIND        PRES    WAVE   SWELL
                       AIR SEA DIR/SP/G            HT/PER HT/PER/DIR
                 (UTC) (F)     (DEG/KT/KT) (MB)    (FT/S) (FT/S/D)
BUOY 41004       1450   57 68  320/ 23/ 29 1017.6R   5/ 6   2/ 9
BUOY 41008       1450   54 53  310/ 16/ 19 1020.4R   3/ 5   2/ 80/10
FOLLY BEACH CMAN 1500   55     320/ 11/ 16 1019.8R
CAPERS NEARSHORE 1400   54     320/ 19/ 23   N/A
FRIPP NEARSHORE  1400   54     320/ 17/ 21 1018.9R


STATION/POSITION TIME  TEMP    WIND        PRES    WAVE   SWELL
                       AIR SEA DIR/SP/G            HT/PER HT/PER/DIR
                 (UTC) (F)     (DEG/KT/KT) (MB)    (FT/S) (FT/S/D)
5E ST. MARYS GA  1421      56                N/A     2/11
FRYING PAN BUOY  1450   52 63  330/ 21/ 27 1017.2R   6/ 7   2/210/ 8
BUOY 41025       1450   48 68  320/ 23/ 27 1014.3R   6/ 7   3/ 50/11
CAPE LOOKOUT NC  1400   48     330/ 15/ 18 1014.8R
BUOY 41002       1450   67 72  230/ 27/ 31 1015.2F   7/ 6   2/ 70/10
BUOY 41010       1420   69 74  280/ 17/ 23 1021.3R
ST AUGUSTINE FL  1500   58     270/ 11/ 14 1022.1R


$$


USA.gov is the U.S. government's official web portal to all federal, state and local government web resources and services.